Regional Weather Roundup
Issued by NWS Cleveland, OH

Home | Current Version | Previous Version | Text Only | Print | Product List | Glossary Off
Versions: 1 2 3 4 5 6 7 8 9 10 11 12 13 14 15 16 17 18 19 20 21 22 23 24 25 26 27 28 29 30 31 32 33 34 35 36 37 38 39 40 41 42 43 44 45 46 47 48 49 50

000
ASUS41 KCLE 250110
RWRCLE
OHIO REGIONAL WEATHER ROUNDUP
NATIONAL WEATHER SERVICE CLEVELAND, OH
900 PM EDT SUN JUL 24 2016

NOTE: "FAIR" INDICATES FEW OR NO CLOUDS BELOW 12,000 FEET WITH NO
SIGNIFICANT WEATHER AND/OR OBSTRUCTIONS TO VISIBILITY.

OHZ001>008-015>018-024>027-034-035-043-044-250200-
   NORTHWEST OHIO

CITY           SKY/WX    TMP DP  RH WIND       PRES   REMARKS
DEFIANCE       CLEAR     85  74  69 S8        29.90F HX  92
FINDLAY        PTCLDY    83  71  67 S8        29.92F
TOLEDO EXPRESS PTCLDY    80  76  87 SE5       29.90F
TOLEDO EXEC    CLOUDY    81  76  84 SE6       29.92F
LIMA           CLEAR     81  75  82 S6        29.94F
$$

OHZ009>014-019>023-028>033-038-089-250200-
   NORTHEAST OHIO

CITY           SKY/WX    TMP DP  RH WIND       PRES   REMARKS
CLE-HOPKINS    MOCLDY    81  68  64 SE7       29.98F
CLE-LAKEFRONT  CLOUDY    83  69  62 SE7       29.94F
CUY CO. ARPT   PTCLDY    82  72  69 S8        29.98F
LORAIN-ELYRIA  CLOUDY    78  71  79 S6        29.97S
ASHTABULA      CLOUDY    74  70  87 CALM      29.99F
AKRON-CANTON   PTCLDY    78  73  84 SE6       30.01S
WOOSTER        PTCLDY    75  72  90 CALM      30.00S
MANSFIELD      CLOUDY    80  72  76 SE3       29.99F
YOUNGSTOWN     MOCLDY    75  72  90 S5        30.01S
$$

OHZ042-051>053-060>062-070>072-077>081-250200-
  SOUTHWEST OHIO

CITY           SKY/WX    TMP DP  RH WIND       PRES   REMARKS
CINC-COVINGTON PTCLDY    86  76  71 S5        29.98  HX  96
CINC-LUNKEN    PTCLDY    84  75  74 SW7       29.95S HX  92
HAMILTON       CLEAR     88  73  61 W5        29.96S HX  95
DAYTON         MOCLDY    84  72  67 SW6       29.97F
WRIGHT-PAT AFB CLEAR     85  75  71 S2        29.96S HX  94
DAYTON GENERAL CLOUDY    88  71  57 W5        29.96S HX  94
WILMINGTON     CLEAR     83  78  85 CALM      29.97F HX  93
$$

OHZ036-037-039>041-045>050-054>059-063>069-073>076-082>088-250200-
  CENTRAL AND SOUTHEAST OHIO

CITY           SKY/WX    TMP DP  RH WIND       PRES   REMARKS
COLUMBUS       CLOUDY    83  72  69 S5        29.97R
OSU AIRPORT    CLOUDY    84  73  69 S3        29.97S HX  90
BOLTON FIELD   CLOUDY    80  75  85 CALM      29.98S
RICKENBACK AFB CLOUDY    81  74  80 CALM      29.96F
NEWARK         CLOUDY    78  74  87 CALM      29.98S
MARION         CLOUDY    79  71  76 S8        29.97S
LANCASTER      PTCLDY    79  75  87 CALM      29.98S
ZANESVILLE     CLOUDY    82  71  69 CALM      29.99S
NEW PHILLY     CLOUDY    80  73  79 CALM      30.00S
$$




USA.gov is the U.S. government's official web portal to all federal, state and local government web resources and services.